Location: Alphen
(52.1351°N, 4.6549°E)
Time: 02:06:45
(UTC+00:00)

MOS 1-B - Pass Details

Date: 27 January 2021
Orbit: 905 x 914 km, 99.4° (Epoch: 26 February)

Event Time Altitude Azimuth Distance (km) Brightness Sun altitude
Rises 06:08:03 0° 16° (NNE) 3,546 7.5 -12.3°
Reaches altitude 10° 06:10:28 10° 17° (NNE) 2,600 6.8 -12.0°
Maximum altitude 06:16:17 85° 108° (ESE) 916 4.4 -11.1°
Drops below altitude 10° 06:22:03 10° 197° (SSW) 2,582 6.7 -10.3°
Sets 06:24:27 0° 197° (SSW) 3,520 7.4 -9.9°
